Location: Peyton Hall Observatory
(40.3466°N, 74.6516°W)
Time: 01:35:23
(UTC-04:00)

ISS - All Passes

Search period start: 26 September 2017 00:00
Search period end: 06 October 2017 00:00
Orbit: 401 x 407 km, 51.6° (Epoch: 26 September)

Date Brightness Start Highest point End Pass type
(mag) Time Alt. Az. Time Alt. Az. Time Alt. Az.
26 Sep - 00:45:40 10° NNW 00:47:42 15° NNE 00:49:44 10° NE night (unlit)
26 Sep - 02:21:30 10° NW 02:24:45 55° NE 02:27:59 10° ESE night (unlit)
26 Sep - 03:58:49 10° W 04:00:55 16° SW 04:02:59 10° S night (unlit)
26 Sep - 19:01:34 10° S 19:04:04 21° SE 19:06:36 10° E daylight
26 Sep - 20:37:13 10° WSW 20:40:21 42° NNW 20:43:30 10° NE visible
26 Sep - 22:15:40 10° NW 22:17:29 14° NNW 22:19:18 10° NNE visible
26 Sep - 23:53:28 10° NNW 23:55:03 13° N 23:56:38 10° NE night (unlit)
27 Sep - 01:29:17 10° NW 01:32:18 32° NNE 01:35:18 10° E night (unlit)
27 Sep - 03:05:48 10° WNW 03:08:44 30° SW 03:11:40 10° SSE night (unlit)
27 Sep - 18:11:09 10° SE 18:11:56 11° SE 18:12:43 10° ESE daylight
27 Sep - 19:44:40 10° SW 19:47:57 79° NW 19:51:13 10° NE visible
27 Sep - 21:22:34 10° WNW 21:24:51 17° NNW 21:27:08 10° NNE visible
27 Sep - 23:01:05 10° NNW 23:02:21 12° N 23:03:37 10° NNE night (unlit)
28 Sep - 00:37:07 10° NNW 00:39:46 22° NNE 00:42:24 10° ENE night (unlit)
28 Sep - 02:13:13 10° WNW 02:16:28 61° SW 02:19:43 10° SE night (unlit)
28 Sep - 18:52:26 10° SW 18:55:36 51° SE 18:58:48 10° ENE daylight
28 Sep - 20:29:31 10° W 20:32:15 23° NNW 20:34:59 10° NNE visible
28 Sep - 22:08:19 10° NNW 22:09:38 12° N 22:10:57 10° NNE visible
28 Sep - 23:44:58 10° NNW 23:47:09 16° NNE 23:49:21 10° ENE night (unlit)
29 Sep - 01:20:50 10° NW 01:24:07 68° NE 01:27:23 10° ESE night (unlit)
29 Sep - 02:58:40 10° WSW 03:00:11 13° SW 03:01:42 10° SSW night (unlit)
29 Sep - 18:00:35 10° SSW 18:03:20 26° SE 18:06:07 10° ENE daylight
29 Sep - 19:36:40 10° W 19:39:42 36° NNW 19:42:47 10° NE visible
29 Sep - 21:15:16 10° NW 21:16:55 13° N 21:18:35 10° NNE visible
29 Sep - 22:52:46 10° NNW 22:54:29 13° N 22:56:12 10° NE night (unlit)
30 Sep - 00:28:33 10° NW 00:31:40 38° NNE 00:34:45 10° E night (unlit)
30 Sep - 02:05:17 10° WNW 02:08:00 24° SW 02:10:43 10° S night (unlit)
30 Sep - 17:09:27 10° SSE 17:11:08 13° SE 17:12:50 10° E daylight
30 Sep - 18:44:00 10° WSW 18:47:14 63° NW 18:50:30 10° NE daylight
30 Sep - 20:22:06 10° WNW 20:24:13 16° NNW 20:26:21 10° NNE visible
30 Sep - 22:00:25 10° NNW 22:01:45 12° N 22:03:05 10° NNE visible
30 Sep - 23:36:21 10° NNW 23:39:07 25° NNE 23:41:54 10° E night (unlit)
01 Oct - 01:12:33 10° WNW 01:15:43 47° SW 01:18:53 10° SSE night (unlit)
01 Oct - 17:51:36 10° SW 17:54:50 66° SE 17:58:05 10° ENE daylight
01 Oct - 19:28:59 10° WNW 19:31:34 21° NNW 19:34:09 10° NNE visible
01 Oct - 21:07:45 10° NNW 21:08:59 12° N 21:10:14 10° NNE visible
01 Oct - 22:44:08 10° NNW 22:46:29 18° NNE 22:48:50 10° ENE night (unlit)
02 Oct - 00:20:04 10° NW 00:23:21 85° NNE 00:26:39 10° SE night (unlit)
02 Oct - 16:59:33 10° SSW 17:02:30 32° SE 17:05:28 10° ENE daylight
02 Oct - 18:36:01 10° W 18:38:58 30° NNW 18:41:56 10° NE daylight
02 Oct - 20:14:43 10° NW 20:16:14 13° N 20:17:44 10° NNE visible
02 Oct - 21:51:55 10° NNW 21:53:47 14° NNE 21:55:40 10° NE visible
02 Oct - 23:27:43 10° NW 23:30:53 45° NNE 23:34:04 10° ESE night (unlit)
03 Oct - 01:04:42 10° W 01:07:08 19° SW 01:09:35 10° S night (unlit)
03 Oct - 16:08:04 10° S 16:10:15 17° SE 16:12:26 10° E daylight
03 Oct - 17:43:14 10° WSW 17:46:26 51° NNW 17:49:38 10° NE daylight
03 Oct - 19:21:32 10° NW 19:23:29 15° NNW 19:25:27 10° NNE visible
03 Oct - 20:59:35 10° NNW 21:01:02 12° N 21:02:28 10° NNE visible
03 Oct - 22:35:26 10° NW 22:38:20 28° NNE 22:41:14 10° E night (unlit)
04 Oct - 00:11:47 10° WNW 00:14:51 37° SW 00:17:55 10° SSE night (unlit)
04 Oct - 16:50:42 10° SW 16:53:57 83° SE 16:57:14 10° NE daylight
04 Oct - 18:28:21 10° WNW 18:30:46 19° NNW 18:33:12 10° NNE daylight
04 Oct - 20:07:02 10° NNW 20:08:15 12° N 20:09:28 10° NNE visible
04 Oct - 21:43:12 10° NNW 21:45:42 20° NNE 21:48:11 10° ENE visible
04 Oct - 23:19:12 10° NW 23:22:29 77° SW 23:25:45 10° SE night (unlit)
05 Oct - 15:58:29 10° SSW 16:01:34 40° SE 16:04:40 10° ENE daylight
05 Oct - 17:35:17 10° W 17:38:07 26° NNW 17:40:57 10° NE daylight
05 Oct - 19:14:03 10° NNW 19:15:26 12° N 19:16:49 10° NNE visible
05 Oct - 20:50:57 10° NNW 20:52:59 15° NNE 20:55:00 10° NE visible
05 Oct - 22:26:46 10° NW 22:30:00 55° NNE 22:33:14 10° ESE night (unlit)
